TimeCDT,TemperatureF,Dew PointF,Humidity,Sea Level PressureIn,VisibilityMPH,Wind Direction,Wind SpeedMPH,Gust SpeedMPH,PrecipitationIn,Events,Conditions,WindDirDegrees,DateUTC
12:55 AM,50.0,45.0,83,29.91,10.0,NW,5.8,-,N/A,,Clear,320,2013-07-20 05:55:00
1:55 AM,53.1,44.1,71,29.92,10.0,North,4.6,-,N/A,,Clear,360,2013-07-20 06:55:00
2:55 AM,55.0,43.0,64,29.94,10.0,North,4.6,-,N/A,,Clear,10,2013-07-20 07:55:00
3:55 AM,54.0,42.1,64,29.95,10.0,North,6.9,-,N/A,,Clear,10,2013-07-20 08:55:00
4:55 AM,52.0,43.0,71,29.96,10.0,North,3.5,-,N/A,,Clear,10,2013-07-20 09:55:00
5:55 AM,51.1,44.1,77,29.98,10.0,North,4.6,-,N/A,,Clear,10,2013-07-20 10:55:00
6:55 AM,55.0,46.0,72,30.00,10.0,Calm,Calm,-,N/A,,Clear,0,2013-07-20 11:55:00
7:34 AM,55.4,46.4,72,30.01,10.0,NE,6.9,-,N/A,,Mostly Cloudy,50,2013-07-20 12:34:00
7:55 AM,55.9,46.0,69,30.02,10.0,ENE,8.1,-,N/A,,Mostly Cloudy,60,2013-07-20 12:55:00
8:15 AM,57.2,46.4,67,30.03,10.0,NNE,6.9,-,N/A,,Scattered Clouds,30,2013-07-20 13:15:00
8:55 AM,57.0,46.9,69,30.04,10.0,NNE,4.6,-,N/A,,Clear,30,2013-07-20 13:55:00
9:55 AM,60.1,46.9,62,30.05,10.0,NE,4.6,-,N/A,,Scattered Clouds,50,2013-07-20 14:55:00
10:55 AM,61.0,45.0,56,30.06,10.0,Variable,3.5,-,N/A,,Overcast,0,2013-07-20 15:55:00
11:55 AM,60.1,45.0,57,30.06,10.0,ENE,5.8,-,N/A,,Mostly Cloudy,60,2013-07-20 16:55:00
12:55 PM,62.1,46.0,56,30.06,10.0,NNE,5.8,-,N/A,,Mostly Cloudy,20,2013-07-20 17:55:00
1:55 PM,64.0,46.0,52,30.04,10.0,North,10.4,-,N/A,,Mostly Cloudy,360,2013-07-20 18:55:00
2:55 PM,64.9,46.9,52,30.04,10.0,ENE,8.1,-,N/A,,Overcast,60,2013-07-20 19:55:00
3:55 PM,64.0,46.0,52,30.03,10.0,Variable,4.6,-,N/A,,Partly Cloudy,0,2013-07-20 20:55:00
4:55 PM,64.0,45.0,50,30.02,10.0,Calm,Calm,-,N/A,,Clear,0,2013-07-20 21:55:00
5:55 PM,64.9,45.0,48,30.02,10.0,Variable,4.6,-,N/A,,Clear,0,2013-07-20 22:55:00
6:55 PM,64.9,46.0,50,30.01,10.0,NNE,4.6,-,N/A,,Clear,20,2013-07-20 23:55:00
7:55 PM,63.0,46.9,56,30.02,10.0,NE,3.5,-,N/A,,Clear,40,2013-07-21 00:55:00
8:55 PM,57.9,50.0,75,30.02,10.0,Calm,Calm,-,N/A,,Clear,0,2013-07-21 01:55:00
9:55 PM,48.9,46.9,93,30.02,10.0,Calm,Calm,-,N/A,,Clear,0,2013-07-21 02:55:00
10:55 PM,46.9,45.0,93,30.03,10.0,Calm,Calm,-,N/A,,Clear,0,2013-07-21 03:55:00
11:55 PM,45.0,44.1,97,30.03,10.0,Calm,Calm,-,N/A,,Clear,0,2013-07-21 04:55:00